Regional Weather Roundup
Issued by NWS Burlington, VT

Current Version | Previous Version | Graphics & Text | Print | Product List | Glossary Off
Versions: 1 2 3 4 5 6 7 8 9 10 11 12 13 14 15 16 17 18 19 20 21 22 23 24 25 26 27 28 29 30 31 32 33 34 35 36 37 38 39 40 41 42 43 44 45 46 47 48 49 50

000
ASUS41 KBTV 270110
RWRBTV
VERMONT REGIONAL WEATHER ROUNDUP
NATIONAL WEATHER SERVICE BURLINGTON VT
800 PM EST MON JAN 26 2015

NOTE: "FAIR" INDICATES FEW OR NO CLOUDS BELOW 12,000 FEET WITH NO
SIGNIFICANT WEATHER AND/OR OBSTRUCTIONS TO VISIBILITY.

* THESE REPORTS ARE NOT UNDER NWS QUALITY CONTROL AND/OR DO NOT
  REPORT WEATHER SUCH AS PRECIPITATION AND FOG.

VTZ001>019-270200-
_____VERMONT_____


CITY           SKY/WX    TMP DP  RH WIND       PRES   REMARKS
BURLINGTON     MOCLDY     7  -2  66 NW9       30.13S
MONTPELIER     CLOUDY    10   2  69 CALM      30.10R
MORRISVILLE    CLOUDY    10  -1  61 N7        30.12R
ST. JOHNSBURY*   N/A     11   1  64 MISG      30.09R
MIDDLEBURY*    FAIR      10   2  70 N6        30.10R
RUTLAND*       CLOUDY    12   1  62 N7        30.03R
SPRINGFIELD    CLOUDY    18  -1  43 E9        30.08R
HIGHGATE*      FAIR       4  -5  67 N3        30.15S
NEWPORT*       FAIR       5  -4  68 N6        30.10S
BENNINGTON     CLOUDY    20   9  62 CALM      29.97S
SUTTON*          N/A      9 N/A N/A MISG        N/A

_____LAKE CHAMPLAIN_____


CITY           SKY/WX    TMP DP  RH WIND       PRES   REMARKS

$$

NYZ007-026>031-035-052-083-270200-
_____NORTHERN NEW YORK_____


CITY           SKY/WX    TMP DP  RH WIND       PRES   REMARKS
PLATTSBURGH    CLOUDY     6  -5  60 NW6       30.16R
SARANAC LAKE   CLOUDY     3  -5  69 NE8       29.95R
MASSENA        MOCLDY     4  -7  60 NE16      30.16S WCI -15
OGDENSBURG*    CLEAR      7  -2  66 E13G18    30.11R WCI  -9
POTSDAM*       PTCLDY     3  -4  72 E7        30.09S
WATERTOWN      CLOUDY    10   0  63 NE13      30.05S WCI  -5
FT DRUM        CLOUDY     6  -4  65 NE10      30.01S WCI  -9
ALBANY         FLURRIES  16   8  71 N10       30.03S WCI   4
GLENS FALLS    CLOUDY    16   4  59 N9        30.06S

$$
NHZ002-005-011-270200-
_____NEW HAMPSHIRE_____


CITY           SKY/WX    TMP DP  RH WIND       PRES   REMARKS
LEBANON        CLOUDY    18   2  49 NW5       30.08R
KEENE          CLOUDY    19  10  68 N9        30.04F
MT WASHINGTON  CLOUDY     7 -11  43 S15         N/A  WCI -11
PLYMOUTH       CLOUDY    18  -2  40 E8        30.11S
WHITEFIELD     CLOUDY    15  -6  39 E9        30.06S

$$

_____REGIONAL QUEBEC LOCATIONS_____


CITY           SKY/WX    TMP DP  RH WIND       PRES   REMARKS
MONTREAL       PTCLDY     3  -9  55 N14       30.20S WCI -15
QUEBEC CITY    PTCLDY    -2  -9  71 N8        30.28F
SHERBROOKE     CLOUDY     5  -4  66 NE8       30.12S

_____REGIONAL ONTARIO LOCATIONS_____


CITY           SKY/WX    TMP DP  RH WIND       PRES   REMARKS
OTTAWA         PTCLDY     3  -9  55 NE15      30.15F WCI -15

______KEY______
VSB  - VISIBILITY IN MILES
WCI  - WIND CHILL INDEX
HX   - HEAT INDEX
$$
NNNN


USA.gov is the U.S. government's official web portal to all federal, state and local government web resources and services.